User: anonymous   Login
Location: Unspecified
(0.0000°N, 0.0000°E)
Time: 11:50:13
(UTC+00:00)
Language:

AALTO-2 - Orbit

View from above orbital plane
View from above orbital plane
View from above satellite
View from above satellite

Ground track
Ground track

The orbit data is extracted from the following two-line orbital elements,

1 42729U 98067MJ  18168.93308487  .00024870  00000-0  19556-3 0  9990
2 42729  51.6356 351.9715 0002580 222.4690 137.6108 15.71334664 60487
Epoch (UTC): 17 June 2018 22:23:38
Eccentricity: 0.0002580
inclination: 51.6356°
perigee height: 353 km
apogee height: 357 km
right ascension of ascending node: 351.9715°
argument of perigee: 222.4690°
revolutions per day: 15.71334664
mean anomaly at epoch: 137.6108°
orbit number at epoch: 6048

The dashed part of the orbit path shows where the satellite is in the earth's shadow,  

DLR